GFSCGP_500_spd_057.txt.gz
Wind_Speed
29 29 31 35 36 38 40 42 45 46 47 49 49 47 48 50 51 53 52 56 63 60 69 65 71 75 71 67 66 63 61 59 59 58 55 52 42 40 40 41 35 36 34 37
26 27 29 31 34 35 37 40 43 44 46 48 49 47 50 53 53 54 55 55 56 57 61 64 67 71 75 66 62 64 64 61 59 53 55 55 50 45 45 46 41 36 40 42
23 25 27 28 30 33 36 39 42 45 47 48 52 50 50 52 54 57 59 59 58 58 57 59 63 62 72 75 78 68 65 66 63 61 61 58 55 49 47 45 40 43 46 48
23 24 26 28 29 29 31 34 37 38 41 44 47 53 51 52 55 58 60 60 62 62 62 58 56 59 62 62 72 73 69 67 69 66 63 57 53 48 46 44 46 51 44 47
25 25 26 26 27 29 30 31 34 36 39 42 43 49 49 52 54 56 60 63 64 65 64 64 62 59 59 62 61 75 75 73 71 67 67 61 55 46 49 52 50 41 40 46
24 25 24 25 24 26 30 33 35 37 40 43 44 49 47 51 54 56 59 63 66 68 68 66 65 63 62 61 63 65 70 69 71 78 75 68 61 47 38 35 37 40 43 48
19 20 23 24 25 27 29 31 35 38 39 42 44 51 47 52 55 59 60 61 63 66 68 69 68 66 64 64 64 62 65 65 63 61 68 65 48 39 35 37 44 45 44 45
20 19 20 21 25 27 26 29 33 40 41 46 45 50 47 48 53 55 58 59 62 63 65 68 70 69 67 66 64 64 63 62 59 57 58 55 48 39 41 45 47 47 44 38
24 20 17 21 22 26 31 30 31 36 38 43 44 45 45 38 42 36 38 50 57 60 64 66 68 69 68 68 66 63 61 61 60 58 55 54 48 45 44 45 47 45 40 35
26 25 17 20 22 26 29 29 32 36 40 42 43 41 33 23 26 34 33 34 33 38 51 62 63 67 67 67 67 66 61 59 57 57 51 47 46 46 46 45 44 39 38 36
23 25 22 17 18 21 24 27 32 36 38 39 43 38 25 23 28 25 32 32 32 31 32 40 48 58 65 67 65 65 64 57 53 53 50 45 43 46 47 46 40 36 36 34
22 26 23 16 16 17 21 25 30 34 34 40 43 45 30 28 32 27 23 25 26 32 36 37 38 46 58 63 66 63 62 60 52 48 46 44 43 41 42 41 37 34 32 33
20 23 20 16 17 20 23 24 30 32 33 36 40 32 16 18 19 26 25 25 25 31 36 36 37 41 50 60 65 62 60 59 53 48 45 44 41 38 36 36 33 31 33 31
21 19 20 18 17 24 23 22 24 29 35 34 38 35 24 21 21 23 24 21 26 30 28 27 37 37 53 62 64 60 58 56 53 47 45 43 43 39 37 35 31 32 30 29
21 18 19 20 24 22 21 22 18 25 22 29 25 29 22 23 24 24 24 25 24 24 19 24 31 37 50 55 61 57 53 53 51 48 47 48 45 39 36 31 31 30 27 28
21 15 18 11 23 22 18 18 21 23 23 26 27 28 22 24 27 29 27 30 26 23 20 14 34 36 46 61 61 57 58 55 51 47 48 45 40 34 33 33 29 26 27 27
13 12 16 8 21 20 18 20 20 20 22 25 23 19 22 24 29 33 36 36 25 23 18 24 36 35 50 59 63 60 57 52 48 43 44 41 39 37 34 30 28 27 25 24
11 12 15 12 17 17 18 23 24 22 21 26 26 25 27 26 27 25 30 34 30 18 11 22 29 38 43 43 54 50 48 48 45 41 42 42 37 34 31 27 27 24 24 26
12 13 17 19 20 17 15 24 26 25 19 28 29 28 24 29 26 25 25 29 15 15 14 23 31 28 41 36 31 40 48 48 46 41 42 39 36 32 28 26 26 25 26 26
17 19 16 20 23 21 20 21 25 30 28 30 24 25 31 29 29 19 26 19 12 13 18 29 23 21 30 29 26 46 48 52 47 44 43 39 35 31 27 26 25 25 25 24
19 18 20 20 24 22 25 23 28 34 41 41 37 31 33 26 22 18 30 12 7 10 14 14 18 15 16 30 32 50 49 55 51 46 42 36 32 27 27 26 24 24 23 23
22 21 21 21 24 24 22 25 32 33 46 48 42 30 29 22 15 20 21 11 12 10 12 19 17 15 18 22 39 48 54 51 42 47 37 34 30 28 26 24 23 23 21 20
18 21 21 23 20 27 29 32 38 41 52 54 43 31 20 13 16 16 18 13 13 12 14 20 20 16 15 21 44 53 51 47 49 40 37 33 30 26 23 22 23 20 20 19
19 19 19 21 23 28 28 36 45 48 50 45 32 17 12 12 16 16 17 10 12 16 18 15 14 17 25 27 41 48 51 43 43 38 32 28 24 24 23 21 18 18 19 18
22 18 18 21 24 26 30 40 43 41 35 20 11 9 11 13 16 21 18 16 15 12 13 11 18 20 33 45 47 40 46 41 36 31 28 28 24 22 22 20 20 19 16 15
17 18 16 21 31 36 40 42 35 15 8 4 4 10 8 13 21 21 15 12 15 17 11 18 21 36 44 50 48 44 40 34 29 28 27 25 24 22 21 20 18 15 14 16

GFSCGP_500_spd_060.txt.gz
Wind_Speed
31 31 33 35 34 34 36 38 39 40 41 41 40 42 43 42 44 45 46 48 52 68 73 67 64 63 56 57 56 57 58 57 60 62 60 58 51 46 42 33 30 31 36 38
26 28 33 35 35 36 38 40 41 43 43 45 44 42 44 46 45 47 47 49 50 55 60 68 77 73 71 64 61 58 57 58 60 62 66 60 56 53 47 41 36 39 38 41
26 28 30 32 34 35 37 38 40 41 42 43 43 42 42 46 47 49 51 52 54 56 57 58 65 70 80 75 76 73 65 61 61 64 65 67 68 63 56 51 41 38 40 44
26 27 29 30 30 30 31 34 36 38 41 41 43 44 42 45 48 51 53 54 56 57 59 59 59 61 64 70 84 81 77 74 75 63 70 64 62 64 57 48 43 44 45 47
28 28 29 28 29 30 30 32 34 35 37 37 37 40 39 40 44 49 54 57 59 58 59 62 63 63 63 64 67 67 69 71 73 79 75 70 66 62 57 49 42 43 46 50
28 29 28 27 27 27 29 32 34 35 35 37 37 39 39 39 42 44 47 51 58 62 63 64 65 66 67 66 66 68 65 63 64 64 73 77 72 64 56 53 49 48 51 53
26 25 23 23 24 27 29 31 33 35 35 36 38 40 38 45 47 50 52 51 52 56 63 68 68 68 68 67 69 69 68 65 66 64 60 67 73 66 61 48 51 60 62 52
28 22 21 22 26 27 28 29 30 35 35 37 36 40 40 44 50 53 55 57 59 58 61 64 69 70 70 68 68 70 71 68 67 64 61 57 65 70 65 50 48 51 52 44
33 29 23 22 24 25 27 28 27 30 32 37 36 38 42 37 46 52 52 52 57 60 62 64 66 67 69 70 69 69 69 68 68 65 61 60 59 58 61 48 50 47 48 46
35 33 28 23 24 26 30 27 25 25 31 35 35 32 20 29 34 38 43 38 47 51 56 61 63 66 68 70 70 68 68 66 66 66 64 61 58 57 55 48 47 45 48 45
40 39 31 24 22 27 27 25 23 24 27 33 31 23 28 35 35 40 39 35 23 27 38 46 50 59 67 69 69 68 66 66 65 64 63 62 59 58 55 48 44 45 45 42
49 49 45 21 21 24 23 22 22 23 27 32 38 27 30 29 32 30 35 35 28 30 26 28 34 39 41 58 70 69 67 65 64 65 61 60 59 55 51 47 46 46 46 46
25 23 21 19 20 21 21 20 22 27 30 32 34 30 32 27 26 29 26 29 31 30 29 28 32 35 35 38 58 69 67 64 63 62 62 59 59 55 50 48 46 45 45 43
21 19 19 20 22 22 19 17 21 25 29 25 31 27 23 29 34 32 33 30 29 29 31 31 31 34 39 38 42 59 67 64 63 61 59 58 55 50 51 50 48 44 40 37
24 14 17 18 20 24 24 18 20 24 22 26 25 33 31 32 23 30 30 29 31 31 31 31 29 32 35 38 41 43 62 65 63 60 54 54 54 53 51 49 46 39 34 31
18 16 19 18 19 22 22 18 23 23 22 26 29 30 33 30 27 27 33 36 35 34 33 31 31 27 32 32 35 41 51 62 62 58 54 53 56 56 51 47 42 33 30 32
16 16 17 12 19 24 16 17 22 24 24 29 31 30 32 31 32 29 27 30 31 35 41 36 33 30 34 30 28 32 42 56 61 57 55 53 56 53 48 41 35 32 32 33
20 17 13 10 17 21 16 18 23 27 24 28 28 30 35 35 30 29 28 33 28 30 32 25 29 22 33 26 12 29 40 51 56 57 55 52 50 47 45 38 35 33 33 33
7 10 12 16 19 18 16 22 25 29 22 27 33 34 36 37 38 31 35 36 31 27 26 21 25 26 26 25 25 24 40 54 50 54 50 44 46 46 41 39 35 34 34 32
8 13 16 21 25 22 18 24 25 30 31 32 33 35 42 47 34 28 36 34 30 17 21 19 15 23 23 28 31 29 38 57 56 52 47 45 46 44 39 36 35 33 31 27
16 18 21 24 27 23 24 25 29 31 36 38 41 45 49 50 41 22 27 29 15 13 11 12 12 24 19 19 23 25 30 51 50 49 51 48 46 40 38 37 35 30 27 26
17 22 26 28 29 27 29 29 33 37 37 42 49 52 49 41 19 22 20 21 9 7 7 7 11 1 9 13 17 22 32 49 53 54 50 47 43 42 43 38 32 27 26 25
19 21 21 22 19 27 28 33 37 37 43 48 50 47 42 17 12 14 13 13 8 5 2 9 8 10 6 12 20 26 43 52 53 51 48 47 43 43 36 31 28 25 25 24
23 23 22 21 21 24 29 33 39 45 48 46 43 34 20 6 9 9 11 10 5 4 2 6 7 9 12 10 21 34 42 46 54 57 49 41 40 37 33 30 26 26 25 22
18 16 17 20 23 24 27 38 47 45 40 32 22 13 6 3 5 9 15 11 4 5 8 5 4 9 10 10 29 36 41 48 50 38 40 39 36 31 27 25 25 24 22 23
18 19 24 26 29 37 42 46 40 24 15 12 10 7 3 6 6 18 13 7 3 3 6 4 9 9 8 19 21 36 42 46 52 45 37 33 29 28 27 25 23 21 19 17

GFSCGP_500_spd_063.txt.gz
Wind_Speed
26 29 32 33 32 33 34 33 33 34 34 33 33 38 39 39 41 40 40 40 43 71 72 65 59 61 56 56 54 57 54 52 46 47 57 53 49 47 41 39 39 42 41 34
25 25 30 32 34 35 36 37 37 37 37 37 36 36 38 37 40 41 41 41 44 48 72 67 67 65 62 60 58 56 59 59 55 54 54 55 55 54 50 51 46 43 43 38
25 27 28 30 33 34 36 37 39 39 40 40 39 39 39 40 41 44 43 43 44 46 49 51 72 72 74 64 63 61 60 62 61 59 58 57 59 56 58 55 52 50 43 45
27 27 28 29 30 31 33 35 37 38 39 39 39 39 38 40 42 45 45 45 47 50 51 53 54 57 71 85 77 72 70 64 62 64 67 66 62 60 58 55 54 53 50 46
29 29 29 30 30 31 31 33 35 36 37 37 36 39 38 37 40 42 45 46 47 49 53 58 58 59 61 61 62 66 79 74 70 71 70 68 66 65 61 62 59 53 51 53
27 30 28 30 31 31 31 33 34 35 34 34 32 34 34 32 35 37 40 43 44 48 52 56 59 62 64 64 64 65 64 68 70 83 77 77 73 71 66 67 63 63 51 47
27 27 29 31 30 31 32 33 33 34 33 33 32 33 31 32 37 40 41 43 47 48 47 50 54 58 61 64 67 68 68 66 65 63 70 75 78 73 74 68 69 71 58 51
30 29 28 29 28 28 31 32 33 35 34 33 34 34 31 34 38 43 47 48 48 49 51 53 52 52 55 60 65 67 69 69 67 65 63 61 62 57 56 56 52 56 63 59
32 31 30 27 32 31 30 30 31 33 34 35 33 32 33 30 33 39 46 50 51 53 54 56 56 57 57 58 60 64 67 68 69 69 66 63 59 59 57 54 50 48 49 55
32 34 32 31 28 29 33 35 32 28 32 33 32 31 27 25 26 34 39 46 51 54 57 59 60 60 62 64 63 62 63 66 69 69 69 67 64 60 56 53 51 46 43 53
28 34 36 38 38 32 32 35 30 30 30 27 30 27 16 26 33 38 44 47 49 48 52 56 58 59 63 66 67 68 66 63 66 68 68 66 65 63 59 56 52 50 47 46
22 29 36 37 38 35 33 31 29 28 23 25 26 21 21 24 32 35 37 39 43 49 48 51 54 53 54 62 67 69 70 68 65 66 67 66 64 63 60 57 54 52 50 46
20 25 24 27 22 20 27 27 28 25 24 26 24 16 25 25 27 34 36 37 43 43 41 41 46 39 38 40 45 55 68 71 69 65 65 64 63 63 59 56 54 53 52 50
25 20 19 21 16 21 24 27 27 25 25 23 23 15 19 23 29 30 36 39 39 33 39 42 41 39 41 41 35 37 51 67 71 69 64 63 62 63 59 57 55 53 51 48
27 22 19 15 17 25 23 28 27 27 24 27 18 23 21 30 31 32 34 37 38 37 37 41 43 42 43 42 40 40 41 49 66 70 66 63 61 62 61 58 55 52 51 48
18 16 13 13 20 24 27 26 26 28 28 28 26 25 26 33 36 36 37 37 39 39 40 42 43 43 41 39 40 41 45 47 53 65 67 63 61 59 59 58 55 54 51 48
16 16 16 13 21 27 23 18 22 22 26 26 27 29 31 35 37 36 36 39 38 38 39 39 37 42 41 39 39 38 35 49 47 57 63 60 58 56 58 59 55 52 47 41
17 20 19 13 17 18 17 18 20 24 24 27 29 32 35 36 41 42 42 45 40 39 40 39 38 38 40 44 42 39 37 37 45 48 55 56 56 56 58 58 56 50 43 38
6 4 6 11 17 16 14 18 22 26 24 27 32 37 39 40 46 43 47 51 45 43 41 32 25 29 35 36 33 28 35 28 35 40 53 57 57 55 55 54 54 47 42 39
10 4 13 15 21 22 20 23 27 30 32 29 36 39 41 46 48 48 48 42 41 31 21 18 21 30 26 24 22 19 14 24 28 48 52 54 55 53 51 50 51 45 40 37
16 17 19 23 28 29 31 32 30 33 37 37 40 41 46 47 51 45 34 27 27 24 19 21 26 21 22 21 19 15 19 29 33 48 44 49 50 48 50 49 44 41 37 34
14 16 19 21 24 22 26 30 34 37 38 41 43 45 45 50 43 34 22 18 18 16 18 15 12 12 21 15 22 19 16 32 34 43 45 48 45 46 47 43 40 36 35 33
17 20 21 21 21 25 24 27 30 36 39 38 41 46 46 38 27 17 12 11 15 14 10 9 10 11 11 15 22 25 25 32 38 47 48 49 48 44 40 39 37 36 35 29
17 21 22 23 25 27 29 32 39 41 45 45 42 38 29 19 13 9 6 12 11 10 8 9 11 11 12 6 23 28 30 32 48 48 50 47 43 41 40 39 40 34 28 30
14 17 22 24 29 30 28 43 44 45 44 38 29 19 12 11 7 6 14 14 10 8 6 4 7 10 10 11 19 23 31 42 48 47 48 45 43 42 40 43 35 34 32 28
17 21 23 30 30 37 43 48 38 29 19 14 15 13 7 6 6 15 15 10 10 7 3 8 11 12 15 18 26 30 35 41 33 46 47 47 41 45 38 35 33 30 24 19

GFSCGP_500_spd_069.txt.gz
Wind_Speed
28 27 27 26 31 36 40 44 42 30 33 42 40 34 35 35 43 44 44 49 49 54 58 55 48 72 75 77 79 77 75 74 71 66 72 61 65 62 61 49 53 48 48 48
30 32 29 31 33 33 33 40 42 40 39 45 41 38 37 38 45 42 40 43 45 53 54 60 50 61 76 79 81 79 82 80 81 70 56 62 53 59 54 52 52 52 60 51
29 29 34 33 31 33 32 33 35 35 29 47 44 39 39 37 38 40 40 39 42 50 52 50 58 44 79 81 81 76 83 82 81 82 69 62 67 47 59 59 53 59 60 49
32 30 33 34 36 33 34 25 31 38 42 41 30 38 29 34 43 42 39 39 39 42 47 48 47 50 43 84 82 81 81 76 82 70 77 73 58 66 65 60 58 53 45 40
26 29 34 31 31 32 32 27 33 33 35 39 38 39 36 33 34 45 41 40 40 40 41 42 44 45 47 49 86 81 76 80 65 68 54 64 67 56 62 54 58 62 62 48
32 30 33 35 30 33 32 32 36 35 33 35 33 33 30 21 31 40 41 42 41 42 42 42 43 41 41 36 78 84 77 86 74 71 63 68 63 72 62 60 62 63 64 60
30 26 26 30 36 31 32 29 26 26 27 31 22 27 23 27 34 25 32 38 38 38 40 39 43 45 46 44 45 49 74 82 73 79 75 77 73 64 62 69 64 60 64 65
33 29 27 35 40 32 29 25 24 25 23 21 26 26 24 33 36 37 33 31 33 33 35 38 39 41 43 46 50 53 55 53 57 68 85 74 78 86 84 73 71 72 64 63
30 33 35 38 38 30 28 33 30 29 29 32 26 21 21 34 32 35 30 34 33 34 34 34 36 38 38 40 42 47 53 56 59 59 56 64 79 73 80 79 75 70 72 68
33 35 29 36 32 38 37 34 34 32 32 30 30 31 25 30 33 31 33 33 36 38 35 36 37 38 40 42 43 44 45 47 53 58 62 64 64 60 57 67 80 76 71 68
32 29 25 29 32 29 28 32 36 32 26 24 22 21 23 21 22 25 37 36 34 37 38 38 40 41 43 45 46 48 50 50 50 52 53 57 61 63 62 61 63 62 61 59
26 27 27 24 22 21 24 30 24 35 34 36 31 34 28 25 28 32 33 32 33 38 36 38 40 41 43 46 48 49 50 53 56 57 56 56 56 59 62 62 61 58 58 58
21 19 19 17 16 18 23 29 33 35 36 38 37 33 27 33 40 35 34 34 38 39 37 37 37 39 42 45 48 50 54 57 58 59 63 63 61 62 62 61 60 57 56 55
17 17 19 21 21 27 20 19 24 30 33 37 41 35 37 32 26 20 26 31 38 36 36 36 38 39 40 42 47 50 52 56 62 64 65 65 68 68 66 65 62 59 55 54
16 15 18 22 24 29 35 34 32 32 33 32 32 33 36 33 29 20 32 37 35 33 34 37 37 39 40 42 44 47 51 54 55 59 64 66 67 69 71 69 66 62 57 52
15 13 18 18 19 17 24 29 33 34 34 36 35 32 31 34 36 34 32 34 38 37 38 38 40 42 43 47 49 51 52 52 57 57 56 57 65 70 70 71 68 64 60 54
16 13 14 15 14 22 22 15 18 20 23 27 31 29 27 27 29 33 39 45 41 38 40 42 44 47 48 51 55 57 58 57 55 58 54 51 54 62 70 72 69 65 61 56
15 16 11 10 14 17 14 10 19 17 17 19 22 23 18 28 34 41 42 40 41 41 43 45 49 51 53 56 60 63 65 61 59 56 58 53 49 47 53 69 71 67 61 56
13 12 13 12 13 11 8 18 19 18 21 21 24 32 32 37 39 38 43 45 43 44 48 52 55 57 58 64 66 63 52 53 57 51 56 52 52 49 49 54 71 68 62 56
15 16 20 16 19 17 19 27 24 29 28 31 33 36 36 38 43 44 47 45 48 49 53 56 59 62 65 58 43 44 40 40 39 42 49 50 49 45 47 44 65 67 63 56
13 14 13 13 17 15 19 22 23 23 25 25 28 29 33 41 46 49 49 49 52 55 58 61 62 56 39 34 38 38 33 26 30 36 39 42 40 38 38 45 57 61 60 54
9 10 11 13 14 18 19 22 26 30 26 29 30 34 40 42 43 47 52 51 52 53 55 53 42 30 29 30 34 33 32 28 33 37 37 39 37 36 40 44 49 56 55 52
8 12 14 16 19 22 23 30 33 37 41 40 43 38 38 37 38 42 40 43 47 47 40 34 28 26 31 28 25 27 28 23 19 19 25 36 42 36 42 46 51 52 54 50
9 14 19 22 22 25 29 34 38 46 49 45 36 34 30 26 26 30 34 33 32 31 27 25 20 22 17 14 20 19 22 17 9 18 20 28 34 40 42 46 49 51 50 48
13 18 20 20 25 28 36 45 47 53 35 28 28 29 27 23 23 25 28 27 26 23 21 18 21 21 17 15 15 19 13 11 20 26 33 41 44 46 46 47 47 46 46 45
17 21 27 23 26 38 43 50 47 32 29 23 25 26 26 24 23 21 24 24 22 19 19 20 16 17 16 15 18 14 16 21 27 42 50 53 51 49 46 44 43 42 38 34

GFSCGP_500_spd_072.txt.gz
Wind_Speed
29 32 32 32 32 32 34 36 38 39 28 22 28 39 47 37 37 38 47 47 47 49 42 48 55 70 64 50 62 73 76 76 77 74 77 73 73 69 70 61 57 55 57 56
28 30 30 32 36 37 36 38 40 46 46 34 38 38 48 43 37 38 43 44 45 41 41 48 56 64 64 54 43 75 76 81 78 82 79 78 72 77 77 70 61 67 57 61
29 29 29 30 35 36 36 39 39 37 30 27 33 45 50 49 38 38 41 43 41 43 39 44 52 59 64 55 59 52 80 80 88 85 86 81 84 83 72 74 65 70 60 59
34 30 32 31 35 35 36 33 26 28 29 32 28 40 36 32 30 36 44 46 45 42 41 42 45 54 59 54 53 53 76 83 85 79 91 87 82 78 68 64 75 70 57 53
33 33 29 27 33 31 35 24 31 29 34 32 39 39 42 32 29 30 37 42 42 43 42 41 41 45 52 51 54 48 47 83 87 87 73 93 90 82 78 71 61 63 67 58
38 35 31 27 29 34 30 31 37 38 42 40 42 32 39 31 28 25 31 43 44 42 46 43 42 42 46 49 50 47 47 51 74 89 82 71 73 89 79 80 73 62 58 76
32 29 34 30 36 33 32 32 32 29 32 35 22 36 22 14 22 24 38 46 48 41 43 44 44 44 45 47 47 47 46 45 50 56 92 86 78 52 72 74 72 71 72 72
42 40 37 37 42 38 40 33 32 28 27 28 26 38 27 21 28 39 41 46 48 36 34 39 39 44 46 47 47 45 46 44 44 51 54 88 74 68 70 55 51 58 69 57
45 38 43 37 38 28 33 36 22 35 37 36 31 33 31 35 29 37 43 50 48 41 34 36 37 36 38 41 42 43 43 46 47 44 60 75 77 77 73 65 67 58 64 71
47 53 42 39 44 33 40 41 39 38 33 35 28 27 29 31 26 25 35 34 36 42 39 39 35 35 37 36 37 38 38 41 44 47 50 50 50 48 46 47 58 65 65 59
46 43 34 31 32 24 28 27 31 38 40 45 36 29 34 32 36 29 33 33 33 38 44 39 39 40 40 39 38 39 39 39 40 41 46 48 52 53 52 54 55 49 51 58
31 28 34 31 20 19 24 23 32 39 39 40 34 34 18 29 26 30 26 25 35 26 30 39 45 41 42 42 41 41 42 42 44 44 43 45 45 48 51 53 54 52 53 52
23 22 25 13 12 22 22 30 31 29 37 44 43 39 32 37 23 25 30 23 31 36 38 41 45 44 44 44 44 44 45 46 46 47 47 48 48 49 50 50 51 53 53 53
17 19 22 22 22 26 31 26 26 38 20 24 37 40 37 35 37 32 35 40 37 46 41 41 51 47 45 43 44 44 43 44 47 48 48 50 52 52 54 55 55 53 53 54
15 15 20 21 24 26 29 29 28 28 32 39 34 34 37 39 48 43 31 32 32 25 22 28 51 51 44 43 43 43 43 44 46 49 51 51 53 55 57 58 59 60 58 55
18 17 21 20 21 23 24 24 26 28 31 34 36 39 33 33 32 46 46 40 36 32 36 47 53 52 46 42 42 42 43 46 48 52 52 53 54 56 58 60 60 61 63 60
20 21 17 14 18 20 21 13 14 19 21 29 27 25 24 24 25 29 43 45 48 46 42 48 28 39 45 44 43 44 44 48 52 54 53 55 59 60 59 59 61 62 61 63
18 18 19 14 14 12 10 15 24 27 23 15 19 23 23 29 33 33 38 39 36 40 32 55 57 45 46 50 51 50 52 54 55 57 60 62 67 65 63 61 60 60 62 64
18 19 18 17 16 15 12 16 15 19 21 29 25 26 32 34 36 28 22 28 39 36 36 46 47 50 54 56 56 55 57 61 63 64 70 72 71 69 65 66 59 56 54 62
15 17 17 15 17 17 15 24 20 17 19 26 26 26 28 34 44 44 47 45 50 53 54 52 54 55 55 58 59 61 61 63 65 60 49 50 57 58 58 58 60 54 53 60
14 16 16 15 15 13 19 20 17 24 27 26 32 35 37 38 39 41 41 45 52 57 57 57 56 56 56 58 58 58 58 49 45 42 44 46 42 43 51 51 54 48 50 55
14 15 17 17 21 21 26 28 30 32 33 37 37 40 44 47 51 49 50 51 49 51 53 55 55 56 56 54 53 46 35 37 39 42 40 37 36 29 32 38 40 44 50 51
11 14 16 20 21 25 29 31 35 36 40 47 46 51 49 41 42 40 42 45 41 36 34 38 41 42 42 39 40 39 35 35 35 34 36 37 30 31 33 40 41 41 46 45
9 11 15 19 21 26 30 35 39 43 46 51 57 39 37 32 31 31 31 27 27 30 30 30 30 28 25 28 22 17 23 28 24 26 27 22 27 29 33 36 36 37 39 51
11 16 20 24 30 30 32 38 45 50 52 41 38 34 32 30 27 28 24 25 28 27 26 24 20 19 21 23 20 18 18 18 20 8 7 15 17 33 31 34 36 40 50 53
14 23 25 25 29 38 42 48 50 43 40 35 30 26 28 27 28 27 25 25 25 22 23 19 13 18 23 23 22 22 18 12 14 10 11 13 20 28 27 35 44 48 50 49

GFSCGP_500_spd_075.txt.gz
Wind_Speed
22 24 25 28 33 36 38 38 39 37 34 31 33 37 41 32 43 51 51 52 52 54 56 55 56 55 50 50 45 48 51 69 66 69 70 68 76 73 73 70 69 63 62 59
24 24 27 30 33 34 36 38 41 42 40 42 42 41 35 36 46 48 41 43 46 50 50 50 51 53 51 51 47 43 59 56 73 68 74 74 74 66 79 75 77 66 65 66
28 28 30 31 33 33 39 40 39 41 43 41 49 54 43 41 43 49 44 40 43 43 46 49 51 50 51 49 48 37 48 57 64 79 75 83 82 69 67 69 72 70 64 72
30 31 34 36 34 32 40 39 42 40 39 35 29 41 50 52 52 53 49 40 43 43 47 49 48 39 49 49 45 39 45 55 58 61 80 82 83 89 75 84 83 74 69 79
28 32 35 39 38 29 31 35 36 36 40 39 42 39 43 44 48 47 37 31 35 40 45 47 47 45 43 44 44 43 45 56 56 53 56 83 87 92 86 76 65 78 70 75
28 27 30 38 38 35 30 36 42 38 40 44 39 44 44 36 43 45 37 34 29 34 42 48 51 50 47 43 41 43 42 51 59 57 50 58 77 92 84 77 77 83 88 78
38 39 41 36 43 38 43 38 46 43 44 42 29 34 46 32 33 36 31 37 37 41 45 43 41 45 44 44 45 44 42 44 52 56 53 55 53 71 91 81 78 76 84 84
43 45 36 38 43 49 45 45 45 47 45 41 36 26 23 24 26 28 26 28 39 46 49 47 42 39 48 48 48 45 43 41 44 45 49 47 52 46 53 71 85 90 58 67
43 48 44 43 52 35 43 47 39 30 32 44 43 35 27 29 26 35 40 26 34 42 49 44 38 41 36 40 44 46 46 44 46 45 47 46 46 48 43 46 50 65 82 54
52 55 50 47 50 51 41 39 32 37 42 44 43 42 38 30 31 30 23 23 35 45 48 46 41 41 37 34 38 41 42 42 44 45 46 48 47 45 48 46 47 51 45 63
49 49 45 37 39 43 44 33 31 29 29 39 38 25 19 24 29 30 28 34 28 36 43 41 38 37 37 38 37 38 39 39 38 40 41 42 45 46 43 42 42 39 38 35
43 41 32 27 29 27 30 31 34 33 31 26 34 40 26 27 37 34 25 28 34 38 45 44 37 40 42 41 40 40 40 38 38 37 38 37 39 40 39 41 44 46 43 42
41 39 34 23 21 27 23 25 32 35 34 34 37 36 35 30 32 37 25 40 44 37 35 33 37 32 35 33 35 41 41 40 40 39 40 38 37 39 38 38 41 41 41 42
32 27 25 22 17 24 29 26 27 30 34 30 36 18 25 31 36 36 39 30 32 36 35 38 32 38 39 44 39 40 42 43 43 42 43 42 41 41 41 42 43 43 42 41
27 21 22 23 22 23 27 31 32 35 31 32 24 35 27 27 32 34 38 42 42 33 34 44 43 44 41 36 37 38 39 45 46 43 41 41 43 45 46 47 47 47 46 44
24 20 22 19 22 24 26 26 23 17 18 25 31 29 27 32 34 35 41 49 55 47 47 37 37 35 40 43 32 40 42 40 42 42 44 46 46 45 45 47 49 50 51 49
19 20 22 18 20 21 16 19 23 25 18 25 26 26 33 30 32 35 36 40 42 50 50 51 53 49 37 39 38 47 40 37 42 46 45 46 47 49 48 48 50 50 51 52
15 18 19 17 18 14 15 17 19 17 21 24 24 26 33 33 18 25 36 39 39 43 48 48 50 52 49 54 54 51 43 41 44 47 48 50 52 53 52 52 52 50 52 54
18 16 15 17 18 14 16 22 22 16 20 25 25 30 30 34 32 30 34 32 38 47 46 47 46 44 59 48 48 56 63 64 54 53 54 56 58 60 59 57 57 60 58 56
15 13 12 15 16 13 15 15 16 22 22 24 28 31 30 30 34 34 35 38 42 48 50 51 49 54 45 52 49 52 56 56 57 56 58 62 63 64 62 63 63 63 66 64
14 13 15 14 20 19 21 24 25 29 33 34 36 38 41 40 39 40 41 44 45 47 51 55 58 60 59 59 62 63 60 59 57 58 62 62 63 65 68 70 67 62 62 61
12 13 14 19 20 24 26 32 34 36 37 39 39 40 43 45 46 48 49 51 53 55 57 58 62 61 60 58 55 54 56 55 56 59 59 59 55 52 48 48 49 54 53 56
12 13 16 17 20 27 30 39 42 44 45 45 49 52 55 54 47 42 36 37 37 35 37 37 39 43 46 46 46 45 46 49 51 48 44 45 46 47 46 45 45 50 43 46
11 11 16 21 26 31 34 36 40 46 50 53 55 52 47 43 35 34 33 32 28 30 25 21 23 22 23 30 33 34 31 32 36 39 39 35 36 37 37 38 35 32 34 40
11 13 17 24 27 29 35 44 47 45 44 40 40 39 40 36 31 28 24 24 23 24 27 28 25 21 22 22 20 19 18 22 22 23 27 29 24 25 27 28 30 33 36 39
11 16 21 26 32 39 39 39 37 28 27 28 26 23 22 25 24 25 27 30 25 23 27 24 18 17 20 15 21 22 19 20 18 18 17 12 12 16 21 21 23 30 35 36

GFSCGP_500_spd_078.txt.gz
Wind_Speed
21 20 22 26 28 29 32 35 38 39 39 42 46 52 50 53 55 57 55 55 54 53 61 70 71 61 59 61 57 41 41 46 45 52 59 69 66 73 82 71 66 69 75 67
24 22 24 27 29 32 35 39 41 43 41 43 48 50 50 49 54 56 56 56 55 55 53 56 59 59 59 59 58 52 44 44 47 51 55 64 73 71 71 71 62 67 72 80
25 24 27 31 32 35 37 40 44 49 47 42 44 49 48 47 50 50 51 51 49 48 46 50 50 53 54 54 55 55 50 43 45 48 60 58 63 74 77 73 74 66 61 71
24 28 31 34 36 38 43 42 46 50 52 55 42 52 46 43 52 51 53 51 52 51 48 46 46 47 49 51 50 52 52 47 43 46 52 63 55 62 76 81 78 81 71 66
24 29 32 35 36 39 41 41 40 44 46 46 48 47 42 38 43 57 57 59 58 56 56 56 55 50 52 51 49 50 49 45 40 48 52 61 65 49 67 79 84 84 90 80
29 29 33 36 36 36 39 40 44 42 47 56 43 45 43 36 33 38 53 66 63 61 57 49 52 54 53 50 47 48 47 45 43 47 51 53 69 67 61 57 79 85 88 85
32 31 34 40 41 41 41 41 49 51 51 59 45 54 39 29 31 40 43 45 46 49 48 46 49 49 50 51 50 48 46 45 42 44 46 52 62 66 64 59 56 64 80 90
37 37 37 43 47 46 49 46 49 55 55 54 49 53 38 37 28 35 40 43 41 43 50 51 52 45 44 43 43 44 47 47 46 45 44 46 51 61 61 60 49 54 57 57
39 40 39 45 50 54 58 60 56 64 63 51 48 34 42 35 31 29 29 30 36 34 47 49 47 44 44 35 30 34 40 46 47 45 45 44 46 52 54 61 58 55 51 49
41 43 43 47 50 52 55 56 47 43 46 46 39 26 27 31 32 35 34 38 34 43 35 45 47 49 49 45 40 46 45 44 44 44 44 44 45 46 48 49 52 50 54 49
39 43 46 47 47 47 44 39 33 38 40 41 37 27 27 28 24 29 28 31 38 41 38 42 50 50 49 48 48 49 47 44 41 41 44 46 47 47 47 48 48 48 47 50
39 45 45 43 36 36 35 33 34 33 33 37 34 23 26 23 22 26 27 33 27 36 39 39 39 42 48 48 41 36 38 39 36 34 35 39 40 42 43 45 46 46 45 44
40 42 41 39 30 29 27 29 28 31 32 34 34 35 27 28 30 30 28 35 29 37 44 41 41 41 43 41 40 35 33 38 38 36 36 36 38 37 37 38 38 39 39 39
41 38 34 33 26 26 24 25 27 30 34 33 34 29 31 26 20 31 38 40 30 34 31 43 47 50 47 45 41 40 34 35 38 39 36 36 37 36 36 37 38 38 37 36
36 32 28 21 23 25 30 28 26 32 31 35 33 33 34 27 31 32 27 32 35 38 39 45 37 44 40 41 41 38 38 37 41 38 39 38 38 37 38 39 40 41 40 39
33 26 19 14 19 24 25 22 23 22 24 27 28 29 28 30 31 31 33 34 37 40 40 42 42 43 39 48 46 43 46 50 42 35 34 41 40 42 41 42 42 43 43 42
28 22 19 15 19 21 22 19 17 18 20 21 22 24 29 29 29 28 32 33 34 38 40 39 41 41 47 47 44 45 42 42 50 42 36 36 41 46 46 46 45 45 46 47
21 22 20 17 18 17 20 16 18 20 24 22 25 28 23 17 25 29 29 28 32 35 36 39 44 46 46 44 48 55 60 52 49 45 44 35 38 46 47 48 48 48 48 48
18 18 18 17 16 13 13 15 16 21 23 26 27 29 32 31 26 26 32 37 36 36 38 40 46 46 46 43 46 53 59 61 59 59 55 51 43 43 45 50 52 51 50 49
20 16 15 17 20 19 16 16 21 27 27 31 33 34 38 40 41 37 37 38 40 41 42 45 47 47 47 50 50 51 52 62 65 64 68 62 61 59 57 56 56 56 57 54
13 15 16 20 16 18 18 22 25 32 34 34 38 41 43 46 47 47 45 43 46 46 46 47 50 51 52 55 57 52 54 55 60 58 58 56 52 54 59 59 59 60 60 60
14 13 5 13 19 23 26 32 37 40 43 45 46 47 50 51 54 56 58 56 55 54 53 55 57 55 54 55 55 53 54 54 59 59 55 58 62 66 66 62 57 56 57 57
13 12 15 18 21 25 32 36 40 48 53 55 58 58 55 52 52 53 54 57 54 53 52 51 45 40 39 41 45 48 50 49 56 63 67 68 64 63 59 59 59 59 58 57
10 14 13 17 22 27 35 40 41 50 49 44 40 41 44 43 43 40 40 34 39 41 40 38 38 32 27 29 31 31 33 35 41 48 51 49 49 50 53 52 50 48 45 45
13 13 16 19 27 29 35 40 46 43 37 38 40 36 38 38 27 30 27 25 28 26 28 29 28 27 27 29 27 27 27 28 28 29 32 37 42 45 46 47 49 45 44 44
11 13 16 20 26 35 33 37 37 33 37 38 37 36 38 35 26 18 17 16 22 23 23 24 25 25 26 27 26 24 24 24 24 26 30 35 38 33 27 33 36 37 40 31

GFSCGP_500_spd_084.txt.gz
Wind_Speed
23 22 22 28 27 28 29 30 31 32 34 35 34 33 37 42 43 45 45 45 48 51 52 57 63 69 69 68 68 65 62 58 52 45 45 45 43 42 44 47 56 65 65 61
25 25 30 29 29 30 31 33 33 34 36 39 37 35 37 40 42 44 46 48 49 50 51 53 54 61 65 70 72 71 68 66 63 54 53 52 49 50 48 50 52 57 62 65
26 31 30 32 33 33 34 35 36 39 38 41 44 44 39 41 45 46 47 52 54 55 55 55 55 53 57 63 65 71 74 70 67 66 56 55 57 57 55 54 54 54 57 63
28 32 35 36 33 40 37 38 39 39 43 43 44 58 40 42 43 43 45 49 54 57 59 61 62 57 57 57 64 65 67 69 67 68 67 64 57 56 53 55 53 56 55 57
30 33 37 38 36 41 39 39 41 43 45 49 45 54 50 45 48 49 48 47 50 52 57 63 67 69 62 60 63 65 67 69 68 66 65 64 60 55 55 55 57 57 56 57
29 37 38 38 41 41 43 43 45 46 46 53 44 52 58 50 53 57 57 58 49 50 58 65 67 65 66 63 59 61 64 64 60 57 59 60 61 60 57 56 58 60 59 60
34 34 37 40 44 42 41 41 45 50 48 53 50 56 54 51 59 62 63 61 50 44 56 55 59 63 64 62 59 53 53 48 47 45 45 45 48 49 51 57 57 59 60 60
39 36 34 38 38 40 40 40 43 52 53 55 54 58 57 53 56 56 54 52 43 39 46 47 48 54 62 65 60 57 53 49 47 46 47 50 47 49 49 54 56 57 60 60
40 41 39 37 37 38 39 42 45 48 52 57 58 58 58 54 50 51 43 39 41 37 41 41 44 45 54 62 66 60 55 54 54 51 51 48 44 49 52 53 52 54 57 56
42 46 43 40 40 39 41 46 47 49 54 58 59 60 57 44 44 35 34 35 33 36 36 38 41 37 42 53 59 64 55 50 50 45 50 47 42 46 48 53 55 57 56 55
43 44 42 39 38 40 42 44 45 48 52 57 61 60 44 39 39 36 27 24 28 32 32 34 36 31 36 39 48 55 62 58 48 48 51 49 46 43 49 51 52 58 58 52
39 43 42 39 41 41 42 40 43 50 52 54 54 58 38 30 31 32 31 27 24 21 27 30 37 39 34 30 39 49 54 55 54 54 57 54 50 51 44 42 44 49 54 53
38 40 40 40 38 40 42 39 44 47 48 47 47 45 32 31 31 30 28 22 19 23 25 28 34 33 35 33 37 47 56 64 62 57 54 51 54 42 43 42 38 39 41 48
39 39 37 39 39 39 38 40 41 42 43 40 41 40 26 30 32 31 30 31 29 25 27 27 30 37 28 31 42 54 58 62 62 60 54 52 48 49 41 42 36 38 39 41
36 37 36 36 33 36 40 38 35 37 34 40 34 37 26 25 25 25 26 29 30 33 29 28 31 34 35 31 33 35 51 53 61 59 58 52 48 46 38 38 37 39 40 42
35 34 34 29 31 36 38 30 32 33 32 33 31 26 27 27 29 28 26 27 28 30 34 36 36 38 35 37 38 40 34 45 49 60 52 48 46 37 40 36 39 40 40 39
30 32 30 26 30 34 32 28 31 29 30 28 28 28 28 27 28 27 30 31 28 34 33 39 41 41 41 38 40 41 43 42 45 46 43 47 49 43 45 40 40 41 41 41
25 25 29 29 31 31 26 26 26 29 28 32 32 32 34 36 36 35 38 39 37 35 32 35 39 45 45 44 41 42 45 43 51 52 45 42 46 44 47 46 43 42 43 44
21 25 28 29 29 28 22 23 26 31 24 31 34 38 42 47 48 40 43 47 47 44 42 42 40 41 45 47 48 46 44 45 48 50 52 50 46 48 51 48 43 44 43 43
21 24 26 26 26 23 17 24 29 34 31 33 36 42 49 53 58 49 52 52 55 56 55 53 52 51 48 47 47 50 45 41 43 50 49 53 55 51 53 55 49 48 42 40
21 24 24 23 27 22 20 22 30 34 38 40 46 51 56 60 60 58 52 49 47 47 52 58 61 59 58 58 56 53 50 49 45 43 46 53 52 52 56 57 54 52 44 45
20 22 21 22 22 23 23 28 34 39 39 47 51 53 55 55 56 58 57 56 54 52 52 51 55 61 65 65 63 60 55 52 49 48 50 52 50 55 58 62 63 62 59 51
18 19 18 17 16 21 23 31 37 44 47 48 51 51 55 60 61 59 56 52 50 52 52 53 53 52 52 57 63 66 59 54 52 51 47 48 52 55 55 55 56 58 59 61
17 16 13 13 17 19 27 35 40 47 50 50 52 55 56 55 51 45 40 39 37 36 36 38 41 36 35 39 44 44 54 51 46 42 43 45 45 45 49 54 59 62 64 64
13 11 7 10 16 19 27 36 43 41 45 48 51 52 50 41 35 30 36 32 29 20 21 26 18 14 19 26 33 35 39 43 37 38 42 43 44 46 49 52 55 60 66 66
8 5 4 9 18 24 29 34 39 40 45 47 41 33 41 33 35 28 34 33 18 13 13 7 4 4 6 6 13 20 27 30 31 33 34 34 36 37 39 41 42 46 55 63

GFSCGP_500_spd_087.txt.gz
Wind_Speed
20 20 23 27 25 26 27 28 28 29 30 34 32 33 35 35 35 39 41 42 43 43 45 50 55 60 63 63 66 66 65 63 62 57 52 48 44 45 41 38 43 52 61 60
22 23 27 28 27 29 30 31 31 32 34 39 35 38 36 37 37 38 41 41 41 44 47 50 53 56 60 62 67 69 69 70 68 64 60 57 50 48 45 42 42 46 46 46
25 28 29 30 30 31 33 32 35 36 37 41 42 44 38 40 40 42 44 45 47 49 48 48 51 53 57 60 62 66 67 70 71 71 67 65 62 55 52 53 52 52 53 53
26 30 31 32 31 35 34 37 38 39 42 44 45 55 41 42 43 43 44 49 51 52 54 55 54 52 53 56 60 63 66 65 66 72 72 71 67 65 57 58 59 58 57 58
29 30 32 32 32 38 36 36 40 43 45 49 47 49 57 47 43 44 48 50 51 53 55 56 58 58 56 55 56 60 65 67 68 66 69 70 70 68 66 66 63 64 66 66
27 32 32 32 35 38 37 38 41 44 47 53 48 50 58 54 45 45 49 53 54 55 55 55 56 58 58 58 57 60 65 68 67 66 66 67 64 61 60 63 65 66 62 63
27 29 31 33 36 39 40 41 45 49 49 52 50 54 56 53 50 54 55 56 57 56 57 58 59 59 59 57 54 62 66 66 64 63 62 64 64 61 61 60 59 60 61 60
33 31 33 34 37 40 41 41 44 50 51 52 52 57 52 49 48 54 56 58 59 61 61 62 60 52 47 54 62 63 61 60 61 62 58 56 59 54 55 54 51 50 53 59
36 36 34 35 36 37 39 40 41 47 48 54 55 55 54 43 51 54 55 54 56 59 59 54 44 42 45 59 54 57 54 57 58 59 57 54 51 48 46 47 46 47 51 55
37 41 40 38 37 35 37 40 42 44 49 54 53 54 54 46 49 51 52 52 49 49 51 45 37 36 41 49 45 47 54 56 58 58 58 58 55 53 52 53 50 51 52 53
38 40 40 40 38 38 38 40 40 42 46 49 54 54 48 45 48 51 50 48 44 40 37 31 35 32 33 40 45 44 45 51 59 60 61 58 58 55 55 55 52 51 55 58
38 42 43 38 39 36 36 38 38 41 44 49 49 52 42 38 42 44 43 41 36 33 30 32 27 29 36 33 36 37 38 40 55 61 64 63 58 56 53 53 52 52 53 53
36 41 41 40 35 35 38 38 37 36 42 45 48 44 38 39 39 40 37 33 34 34 33 27 28 27 28 30 34 37 33 43 51 58 59 63 56 54 55 55 57 46 46 40
38 38 37 37 35 36 37 37 34 37 42 40 43 42 28 33 36 31 28 29 28 32 32 33 32 31 30 33 32 31 34 43 50 55 58 58 59 55 50 55 52 49 44 40
35 39 34 36 35 35 37 34 32 38 37 41 35 36 29 31 30 26 27 27 28 26 27 30 33 36 32 35 37 37 32 39 52 57 56 58 55 58 56 60 49 42 45 44
34 34 36 33 31 35 36 28 33 36 33 37 34 25 33 31 30 30 30 29 31 31 29 30 34 33 39 36 39 42 41 42 48 54 54 53 55 60 64 55 46 44 47 43
32 33 34 28 27 29 27 28 30 31 31 32 31 30 33 34 36 34 34 36 37 37 38 36 35 36 34 40 41 41 40 45 44 43 49 60 60 62 63 62 58 55 45 41
28 30 30 24 24 25 26 27 29 30 26 29 31 33 37 40 42 39 42 48 47 46 45 45 44 43 40 39 41 44 46 46 46 48 41 41 57 53 62 62 42 31 35 40
25 25 23 23 24 24 24 27 27 26 18 29 33 37 42 46 52 47 48 56 57 54 51 53 53 52 49 45 45 44 46 49 47 47 42 43 47 49 47 43 38 40 40 43
20 19 19 23 25 25 22 24 24 26 23 27 34 39 46 52 58 55 57 57 57 57 54 50 47 57 58 56 54 51 48 48 51 50 47 48 45 55 55 45 41 40 47 48
17 16 18 22 25 22 24 20 21 27 34 36 43 48 53 56 59 61 61 62 60 59 56 56 55 53 51 60 63 61 57 53 54 53 50 51 47 48 53 48 50 46 47 48
14 17 18 21 24 23 16 19 25 31 33 44 48 48 54 61 66 65 57 51 47 45 43 44 48 51 54 53 56 65 66 63 60 55 51 49 50 45 49 47 48 50 54 51
15 17 19 20 19 16 17 22 30 37 42 42 50 54 63 64 55 40 35 31 32 34 35 36 39 42 50 56 58 54 58 70 65 63 58 51 51 47 46 48 49 50 49 50
15 17 17 14 14 13 19 27 33 41 48 48 51 60 55 38 37 36 36 34 32 36 30 26 22 19 22 31 43 54 56 59 66 67 64 58 53 51 49 50 49 50 51 54
16 14 10 7 7 13 22 29 35 37 37 46 53 43 31 34 35 37 36 31 34 26 20 18 13 16 13 11 15 22 30 42 58 58 63 57 54 53 53 50 48 49 50 52
12 8 6 5 9 15 22 31 34 33 40 43 35 27 23 30 32 29 37 28 23 20 20 15 11 11 12 10 8 10 20 25 34 38 44 50 49 50 47 46 48 51 52 53